Pine Ridge, SD

7:36 AM MST on February 22, 2017 (GMT -0700)
Pine Ridge

Weather History for KIEN - October, 2012

Change the Weather History Date:

Monday, October 8, 2012

  Actual Average Record
Temperature  
Mean Temperature 50 °F 51 °F  
Max Temperature 67 °F 67 °F 81 °F (2003)
Min Temperature 32 °F 35 °F 28 °F (2000)
Degree Days  
Heating Degree Days 15 14  
Month to date heating degree days 160 101  
Since 1 July heating degree days 299 323  
Cooling Degree Days 0 0  
Month to date cooling degree days 2 0  
Year to date cooling degree days 1103 714  
Moisture  
Dew Point 29 °F    
Average Humidity 49    
Maximum Humidity 76    
Minimum Humidity 22    
Precipitation  
Precipitation 0.00 in 0.03 in 0.72 in (2011)
Month to date precipitation 0.05 0.34  
Year to date precipitation 9.54 15.74  
Sea Level Pressure  
Sea Level Pressure 29.87 in    
Wind  
Wind Speed 8 mph (NW)    
Max Wind Speed 15 mph    
Max Gust Speed 21 mph    
Visibility 10 miles    
Events      
T = Trace of Precipitation, MM = Missing Value Source: NWS Daily Summary

Daily Weather History Graph

Daily Weather History Graph

Search for Another Location

Airport or City:

Trip Planner

Search our weather history database for the weather conditions in past years. The results will help you decide how hot, cold, wet, or windy it might be!

Date:

Astronomy

Oct. 08, 2012 Rise Set
Actual Time 6:55 AM MDT 6:18 PM MDT
Civil Twilight 6:27 AM MDT 6:46 PM MDT
Nautical Twilight 5:54 AM MDT 7:19 PM MDT
Astronomical Twilight 5:21 AM MDT 7:52 PM MDT
Moon No Moon Rise 2:18 PM MDT (10/8)
Length of Visible Light 12h 18m
Length of Day
11h 22m
Last Quarter, 46% of the Moon is Illuminated
Oct 8
Last Quarter
Oct 15
New
Oct 21
First Quarter
Oct 29
Full
Nov 6
Last Quarter

Hourly Weather History & Observations

Time (MDT) Temp. Windchill Dew Point Humidity Pressure Visibility Wind Dir Wind Speed Gust Speed Precip Events Conditions
12:52 AM 33.1 °F 30.0 °F 24.1 °F 70% 29.94 in 10.0 mi West 3.5 mph - N/A   Clear
1:52 AM 36.0 °F 33.3 °F 21.9 °F 57% 29.91 in 10.0 mi WSW 3.5 mph - N/A   Clear
2:52 AM 39.9 °F 36.7 °F 24.1 °F 53% 29.88 in 10.0 mi Variable 4.6 mph - N/A   Clear
3:52 AM 44.1 °F 40.8 °F 23.0 °F 43% 29.86 in 10.0 mi WSW 5.8 mph - N/A   Clear
4:52 AM 45.0 °F 40.1 °F 21.9 °F 40% 29.86 in 10.0 mi WSW 9.2 mph - N/A   Clear
5:52 AM 39.0 °F 35.7 °F 21.9 °F 50% 29.87 in 10.0 mi WNW 4.6 mph - N/A   Clear
6:52 AM 39.9 °F 37.8 °F 21.0 °F 47% 29.88 in 10.0 mi WSW 3.5 mph - N/A   Clear
7:52 AM 46.9 °F - 23.0 °F 39% 29.90 in 10.0 mi West 8.1 mph - N/A   Clear
8:52 AM 52.0 °F - 24.1 °F 34% 29.89 in 10.0 mi WSW 12.7 mph 18.4 mph N/A   Clear
10:52 AM 61.0 °F - 24.1 °F 24% 29.85 in 10.0 mi West 11.5 mph - N/A   Clear
11:52 AM 64.0 °F - 24.1 °F 22% 29.85 in 10.0 mi West 12.7 mph - N/A   Clear
12:52 PM 66.0 °F - 26.1 °F 22% 29.83 in 10.0 mi NW 10.4 mph 16.1 mph N/A   Clear
1:52 PM 64.9 °F - 26.1 °F 23% 29.81 in 10.0 mi WNW 6.9 mph - N/A   Clear
2:52 PM 64.9 °F - 32.0 °F 29% 29.79 in 10.0 mi Variable 6.9 mph - N/A   Clear
3:52 PM 64.0 °F - 32.0 °F 30% 29.78 in 10.0 mi North 9.2 mph - N/A   Clear
4:52 PM 61.0 °F - 34.0 °F 36% 29.80 in 10.0 mi NE 8.1 mph - N/A   Clear
6:52 PM 53.1 °F - 37.9 °F 57% 29.86 in 10.0 mi NE 9.2 mph - N/A   Overcast
7:52 PM 51.1 °F - 39.0 °F 63% 29.86 in 10.0 mi NNE 12.7 mph 17.3 mph N/A   Mostly Cloudy
8:52 PM 48.9 °F - 37.9 °F 66% 29.88 in 10.0 mi ENE 3.5 mph - N/A   Clear
9:52 PM 48.0 °F - 37.0 °F 66% 29.90 in 10.0 mi North 4.6 mph - N/A   Scattered Clouds
10:41 PM 46.4 °F 42.9 °F 39.2 °F 76% 29.94 in 10.0 mi NNE 6.9 mph - N/A   Overcast
10:52 PM 46.9 °F - 39.0 °F 74% 29.92 in 10.0 mi NNE 8.1 mph - N/A   Overcast
11:52 PM 46.0 °F 41.9 °F 37.9 °F 73% 29.91 in 10.0 mi NNE 8.1 mph - N/A   Overcast